Location: Newark
(43.0000°N, 1.6781°W)
Time: 14:02:17
(UTC+00:00)

Transit 2A - Pass Details

Date: 26 April 2021
Orbit: 602 x 957 km, 66.7° (Epoch: 05 May)

Event Time Altitude Azimuth Distance (km) Brightness Sun altitude
Rises 04:23:13 0° 167° (SSE) 3,092 9.0 -8.3°
Reaches altitude 10° 04:26:24 10° 146° (SSE) 2,111 8.4 -7.8°
Maximum altitude 04:29:18 16° 108° (ESE) 1,685 8.5 -7.3°
Drops below altitude 10° 04:32:05 10° 70° (ENE) 2,021 10.0 -6.8°
Sets 04:35:01 0° 49° (NE) 2,895 10.8 -6.3°
